| time (UTC) | temp F | wind direction | speed knots | gust knots | rain 1hr in | rain 24hr in | rain mn in | humidity % | barometer mb |
| 20260509203543 | 102 | 323 | 3.5 | 7.8 | 0.00 | 0.00 | 0.00 | 9 | 1005.5 |
| 20260509203043 | 102 | 279 | 1.7 | 6.1 | 0.00 | 0.00 | 0.00 | 10 | 1005.5 |
| 20260509202542 | 102 | 247 | 2.6 | 7.0 | 0.00 | 0.00 | 0.00 | 10 | 1005.6 |
| 20260509202042 | 102 | 189 | 1.7 | 6.1 | 0.00 | 0.00 | 0.00 | 9 | 1005.6 |
| 20260509201542 | 102 | 248 | 3.5 | 7.0 | 0.00 | 0.00 | 0.00 | 10 | 1005.7 |
| 20260509201043 | 102 | 165 | 0.9 | 4.3 | 0.00 | 0.00 | 0.00 | 9 | 1005.8 |
| 20260509200544 | 102 | 221 | 2.6 | 7.0 | 0.00 | 0.00 | 0.00 | 9 | 1005.9 |
| 20260509200041 | 101 | 236 | 1.7 | 7.0 | 0.00 | 0.00 | 0.00 | 10 | 1005.9 |
| 20260509195540 | 101 | 187 | 0.9 | 7.0 | 0.00 | 0.00 | 0.00 | 10 | 1006.0 |
| 20260509195038 | 101 | 252 | 0.9 | 6.1 | 0.00 | 0.00 | 0.00 | 11 | 1006.1 |
| 20260509194539 | 101 | 296 | 1.7 | 6.1 | 0.00 | 0.00 | 0.00 | 11 | 1006.1 |
| 20260509194039 | 101 | 223 | 0.9 | 5.2 | 0.00 | 0.00 | 0.00 | 10 | 1006.2 |
| 20260509193539 | 101 | 230 | 1.7 | 5.2 | 0.00 | 0.00 | 0.00 | 10 | 1006.3 |
| 20260509193039 | 101 | 155 | 1.7 | 6.1 | 0.00 | 0.00 | 0.00 | 11 | 1006.2 |
| 20260509192539 | 100 | 190 | 1.7 | 7.8 | 0.00 | 0.00 | 0.00 | 11 | 1006.4 |
| 20260509192037 | 101 | 207 | 2.6 | 5.2 | 0.00 | 0.00 | 0.00 | 11 | 1006.4 |
| 20260509191536 | 100 | 207 | 0.9 | 5.2 | 0.00 | 0.00 | 0.00 | 11 | 1006.4 |
| 20260509191034 | 100 | 225 | 1.7 | 5.2 | 0.00 | 0.00 | 0.00 | 11 | 1006.6 |
| 20260509190534 | 100 | 78 | 0.9 | 7.0 | 0.00 | 0.00 | 0.00 | 11 | 1006.6 |
| 20260509190038 | 99 | 224 | 0.9 | 7.0 | 0.00 | 0.00 | 0.00 | 11 | 1006.7 |
| 20260509185534 | 99 | 87 | 1.7 | 6.1 | 0.00 | 0.00 | 0.00 | 10 | 1006.8 |
| 20260509185032 | 99 | 168 | 0.9 | 6.1 | 0.00 | 0.00 | 0.00 | 11 | 1006.8 |
| 20260509184534 | 99 | 180 | 0.9 | 6.1 | 0.00 | 0.00 | 0.00 | 12 | 1006.8 |
| 20260509184028 | 98 | 222 | 1.7 | 5.2 | 0.00 | 0.00 | 0.00 | 11 | 1006.9 |
| 20260509183527 | 97 | 187 | 1.7 | 5.2 | 0.00 | 0.00 | 0.00 | 11 | 1007.0 |
| 20260509183028 | 97 | 156 | 0.9 | 6.1 | 0.00 | 0.00 | 0.00 | 12 | 1007.1 |
| 20260509182525 | 97 | 210 | 1.7 | 6.1 | 0.00 | 0.00 | 0.00 | 12 | 1007.2 |
| 20260509182024 | 96 | 212 | 1.7 | 4.3 | 0.00 | 0.00 | 0.00 | 12 | 1007.2 |
| 20260509181539 | 96 | 150 | 0.9 | 4.3 | 0.00 | 0.00 | 0.00 | 11 | 1007.3 |
| 20260509181024 | 96 | 195 | 0.9 | 3.5 | 0.00 | 0.00 | 0.00 | 12 | 1007.4 |
| 20260509180523 | 95 | 277 | 0.9 | 7.0 | 0.00 | 0.00 | 0.00 | 12 | 1007.5 |
| 20260509180019 | 95 | 222 | 0.9 | 7.0 | 0.00 | 0.00 | 0.00 | 13 | 1007.5 |
| 20260509175518 | 95 | 90 | 1.7 | 6.1 | 0.00 | 0.00 | 0.00 | 13 | 1007.6 |
| 20260509175018 | 95 | 165 | 0.9 | 4.3 | 0.00 | 0.00 | 0.00 | 13 | 1007.7 |
| 20260509174516 | 94 | 107 | 1.7 | 4.3 | 0.00 | 0.00 | 0.00 | 13 | 1007.7 |
| 20260509174016 | 94 | 223 | 0.9 | 3.5 | 0.00 | 0.00 | 0.00 | 13 | 1007.7 |
| 20260509173514 | 94 | 155 | 0.9 | 2.6 | 0.00 | 0.00 | 0.00 | 14 | 1007.7 |
| 20260509173018 | 94 | 252 | 0.9 | 2.6 | 0.00 | 0.00 | 0.00 | 13 | 1007.8 |
| 20260509172512 | 94 | 165 | 0.9 | 2.6 | 0.00 | 0.00 | 0.00 | 14 | 1007.8 |
| 20260509172011 | 93 | 304 | 0.9 | 2.6 | 0.00 | 0.00 | 0.00 | 13 | 1007.9 |
| 20260509171510 | 93 | 172 | 0.0 | 2.6 | 0.00 | 0.00 | 0.00 | 14 | 1007.9 |
| 20260509171009 | 93 | 200 | 0.0 | 2.6 | 0.00 | 0.00 | 0.00 | 13 | 1007.9 |
| 20260509170507 | 92 | 68 | 0.0 | 2.6 | 0.00 | 0.00 | 0.00 | 15 | 1008.0 |
| 20260509170005 | 92 | 153 | 0.0 | 2.6 | 0.00 | 0.00 | 0.00 | 14 | 1008.0 |
| 20260509165504 | 92 | 184 | 0.0 | 1.7 | 0.00 | 0.00 | 0.00 | 15 | 1007.9 |
| 20260509165004 | 92 | 242 | 0.0 | 1.7 | 0.00 | 0.00 | 0.00 | 15 | 1008.0 |
| 20260509164501 | 91 | 121 | 0.0 | 2.6 | 0.00 | 0.00 | 0.00 | 14 | 1008.0 |
| 20260509164100 | 91 | 204 | 0.0 | 2.6 | 0.00 | 0.00 | 0.00 | 15 | 1007.9 |
| 20260509163559 | 90 | 173 | 0.0 | 2.6 | 0.00 | 0.00 | 0.00 | 15 | 1008.0 |
| 20260509163101 | 90 | 229 | 0.0 | 1.7 | 0.00 | 0.00 | 0.00 | 16 | 1008.0 |
| 20260509162556 | 90 | 86 | 0.0 | 1.7 | 0.00 | 0.00 | 0.00 | 15 | 1007.9 |
| 20260509162055 | 90 | 88 | 0.0 | 1.7 | 0.00 | 0.00 | 0.00 | 15 | 1007.9 |
| 20260509161553 | 89 | 184 | 0.0 | 1.7 | 0.00 | 0.00 | 0.00 | 15 | 1007.9 |
| 20260509161052 | 89 | 155 | 0.0 | 1.7 | 0.00 | 0.00 | 0.00 | 16 | 1007.9 |
| 20260509160551 | 89 | 183 | 0.0 | 1.7 | 0.00 | 0.00 | 0.00 | 16 | 1008.0 |
| 20260509160050 | 88 | 156 | 0.9 | 1.7 | 0.00 | 0.00 | 0.00 | 15 | 1007.9 |
| 20260509155548 | 88 | 314 | 0.0 | 1.7 | 0.00 | 0.00 | 0.00 | 16 | 1007.8 |
| 20260509155047 | 87 | 303 | 0.0 | 1.7 | 0.00 | 0.00 | 0.00 | 16 | 1007.8 |
| 20260509154553 | 87 | 169 | 0.0 | 1.7 | 0.00 | 0.00 | 0.00 | 15 | 1007.8 |
| 20260509154047 | 86 | 146 | 0.0 | 1.7 | 0.00 | 0.00 | 0.00 | 16 | 1007.8 |
| 20260509153544 | 86 | 119 | 0.0 | 1.7 | 0.00 | 0.00 | 0.00 | 16 | 1007.9 |
| 20260509153043 | 85 | 135 | 0.0 | 1.7 | 0.00 | 0.00 | 0.00 | 16 | 1007.8 |
| 20260509152545 | 84 | 152 | 0.0 | 1.7 | 0.00 | 0.00 | 0.00 | 17 | 1007.8 |
| 20260509152041 | 84 | 26 | 0.0 | 2.6 | 0.00 | 0.00 | 0.00 | 19 | 1007.9 |
| 20260509151542 | 83 | 52 | 0.0 | 3.5 | 0.00 | 0.00 | 0.00 | 17 | 1007.8 |
| 20260509151039 | 83 | 46 | 0.9 | 4.3 | 0.00 | 0.00 | 0.00 | 18 | 1007.8 |
| 20260509150537 | 82 | 29 | 1.7 | 4.3 | 0.00 | 0.00 | 0.00 | 18 | 1007.9 |
| 20260509150036 | 82 | 54 | 1.7 | 4.3 | 0.00 | 0.00 | 0.00 | 17 | 1007.9 |
| 20260509145535 | 81 | 40 | 1.7 | 4.3 | 0.00 | 0.00 | 0.00 | 18 | 1007.8 |
| 20260509145034 | 81 | 48 | 0.9 | 5.2 | 0.00 | 0.00 | 0.00 | 18 | 1007.7 |
| 20260509144537 | 80 | 35 | 3.5 | 5.2 | 0.00 | 0.00 | 0.00 | 18 | 1007.7 |
| 20260509144030 | 80 | 53 | 2.6 | 6.1 | 0.00 | 0.00 | 0.00 | 18 | 1007.7 |
| 20260509143530 | 80 | 54 | 2.6 | 6.1 | 0.00 | 0.00 | 0.00 | 20 | 1007.5 |
| 20260509143028 | 79 | 41 | 2.6 | 6.1 | 0.00 | 0.00 | 0.00 | 18 | 1007.5 |
| 20260509142527 | 79 | 46 | 2.6 | 7.0 | 0.00 | 0.00 | 0.00 | 18 | 1007.5 |
| 20260509142026 | 78 | 38 | 2.6 | 5.2 | 0.00 | 0.00 | 0.00 | 19 | 1007.5 |
| 20260509141526 | 78 | 38 | 2.6 | 5.2 | 0.00 | 0.00 | 0.00 | 18 | 1007.5 |
| 20260509141026 | 78 | 59 | 2.6 | 5.2 | 0.00 | 0.00 | 0.00 | 19 | 1007.4 |
| 20260509140524 | 78 | 61 | 2.6 | 6.1 | 0.00 | 0.00 | 0.00 | 19 | 1007.4 |
| 20260509140023 | 77 | 56 | 1.7 | 4.3 | 0.00 | 0.00 | 0.00 | 19 | 1007.3 |
| 20260509135522 | 77 | 65 | 1.7 | 4.3 | 0.00 | 0.00 | 0.00 | 19 | 1007.3 |
| 20260509135024 | 77 | 63 | 0.9 | 6.1 | 0.00 | 0.00 | 0.00 | 19 | 1007.2 |
| 20260509134519 | 77 | 44 | 2.6 | 6.1 | 0.00 | 0.00 | 0.00 | 20 | 1007.1 |
| 20260509134018 | 77 | 69 | 0.9 | 3.5 | 0.00 | 0.00 | 0.00 | 19 | 1007.0 |
| 20260509133517 | 78 | 82 | 0.9 | 3.5 | 0.00 | 0.00 | 0.00 | 20 | 1006.9 |
| 20260509133016 | 78 | 65 | 0.9 | 1.7 | 0.00 | 0.00 | 0.00 | 22 | 1006.9 |
| 20260509132517 | 78 | 334 | 0.0 | 1.7 | 0.00 | 0.00 | 0.00 | 23 | 1006.8 |
| 20260509132013 | 77 | 227 | 0.0 | 0.0 | 0.00 | 0.00 | 0.00 | 23 | 1006.7 |
| 20260509131512 | 77 | 242 | 0.0 | 0.9 | 0.00 | 0.00 | 0.00 | 22 | 1006.6 |
| 20260509131011 | 77 | 250 | 0.0 | 3.5 | 0.00 | 0.00 | 0.00 | 22 | 1006.6 |
| 20260509130510 | 77 | 239 | 0.0 | 3.5 | 0.00 | 0.00 | 0.00 | 22 | 1006.5 |
| 20260509130011 | 77 | 238 | 0.0 | 3.5 | 0.00 | 0.00 | 0.00 | 22 | 1006.4 |
| 20260509125508 | 77 | 251 | 0.9 | 3.5 | 0.00 | 0.00 | 0.00 | 22 | 1006.4 |
| 20260509125007 | 76 | 270 | 0.0 | 2.6 | 0.00 | 0.00 | 0.00 | 22 | 1006.4 |
| 20260509124507 | 76 | 226 | 0.0 | 1.7 | 0.00 | 0.00 | 0.00 | 22 | 1006.4 |
| 20260509124007 | 76 | 216 | 0.0 | 1.7 | 0.00 | 0.00 | 0.00 | 22 | 1006.3 |
| 20260509123506 | 76 | 209 | 0.0 | 1.7 | 0.00 | 0.00 | 0.00 | 23 | 1006.3 |
| 20260509123005 | 76 | 222 | 0.0 | 4.3 | 0.00 | 0.00 | 0.00 | 22 | 1006.3 |
| 20260509122506 | 76 | 219 | 0.0 | 4.3 | 0.00 | 0.00 | 0.00 | 22 | 1006.2 |
| 20260509122005 | 76 | 217 | 0.0 | 1.7 | 0.00 | 0.00 | 0.00 | 22 | 1006.2 |
| 20260509121505 | 76 | 258 | 0.0 | 1.7 | 0.00 | 0.00 | 0.00 | 23 | 1006.2 |
| 20260509121005 | 76 | 226 | 0.0 | 1.7 | 0.00 | 0.00 | 0.00 | 23 | 1006.1 |
| 20260509120507 | 76 | 226 | 0.0 | 1.7 | 0.00 | 0.00 | 0.00 | 23 | 1006.1 |
| 20260509120003 | 76 | 214 | 0.0 | 1.7 | 0.00 | 0.00 | 0.00 | 22 | 1006.1 |
| 20260509115501 | 77 | 203 | 0.0 | 1.7 | 0.00 | 0.00 | 0.00 | 23 | 1006.0 |
| 20260509115000 | 77 | 207 | 0.0 | 1.7 | 0.00 | 0.00 | 0.00 | 22 | 1006.1 |
| 20260509114604 | 78 | 215 | 0.0 | 1.7 | 0.00 | 0.00 | 0.00 | 22 | 1006.1 |
| 20260509114059 | 78 | 267 | 0.0 | 1.7 | 0.00 | 0.00 | 0.00 | 22 | 1006.2 |
| 20260509113558 | 78 | 199 | 0.0 | 1.7 | 0.00 | 0.00 | 0.00 | 21 | 1006.2 |
| 20260509113058 | 78 | 191 | 0.0 | 1.7 | 0.00 | 0.00 | 0.00 | 21 | 1006.2 |
| 20260509112559 | 79 | 159 | 0.0 | 2.6 | 0.00 | 0.00 | 0.00 | 20 | 1006.2 |
| 20260509112055 | 79 | 126 | 1.7 | 2.6 | 0.00 | 0.00 | 0.00 | 20 | 1006.2 |
| 20260509111554 | 80 | 92 | 0.0 | 1.7 | 0.00 | 0.00 | 0.00 | 20 | 1006.1 |
| 20260509111053 | 80 | 216 | 0.0 | 2.6 | 0.00 | 0.00 | 0.00 | 20 | 1006.0 |
| 20260509110553 | 81 | 242 | 0.9 | 4.3 | 0.00 | 0.00 | 0.00 | 19 | 1006.0 |
| 20260509110051 | 81 | 237 | 0.9 | 4.3 | 0.00 | 0.00 | 0.00 | 19 | 1006.0 |
| 20260509105550 | 81 | 240 | 0.9 | 4.3 | 0.00 | 0.00 | 0.00 | 19 | 1005.9 |
| 20260509105051 | 81 | 219 | 0.9 | 5.2 | 0.00 | 0.00 | 0.00 | 19 | 1005.9 |
| 20260509104550 | 81 | 250 | 1.7 | 4.3 | 0.00 | 0.00 | 0.00 | 19 | 1005.9 |
| 20260509104049 | 81 | 271 | 1.7 | 3.5 | 0.00 | 0.00 | 0.00 | 19 | 1005.9 |
| 20260509103548 | 81 | 203 | 0.9 | 4.3 | 0.00 | 0.00 | 0.00 | 19 | 1005.8 |
| 20260509103051 | 81 | 278 | 1.7 | 5.2 | 0.00 | 0.00 | 0.00 | 19 | 1005.8 |
| 20260509102547 | 82 | 279 | 1.7 | 7.0 | 0.00 | 0.00 | 0.00 | 19 | 1005.8 |
| 20260509102047 | 82 | 257 | 1.7 | 7.0 | 0.00 | 0.00 | 0.00 | 18 | 1005.7 |
| 20260509101553 | 82 | 234 | 1.7 | 6.1 | 0.00 | 0.00 | 0.00 | 18 | 1005.8 |
| 20260509101047 | 82 | 274 | 1.7 | 7.0 | 0.00 | 0.00 | 0.00 | 18 | 1005.8 |
| 20260509100545 | 82 | 277 | 2.6 | 7.0 | 0.00 | 0.00 | 0.00 | 18 | 1005.9 |
| 20260509100046 | 82 | 286 | 0.9 | 3.5 | 0.00 | 0.00 | 0.00 | 18 | 1005.9 |
| 20260509095545 | 82 | 269 | 1.7 | 3.5 | 0.00 | 0.00 | 0.00 | 17 | 1005.9 |
| 20260509095045 | 82 | 274 | 0.9 | 2.6 | 0.00 | 0.00 | 0.00 | 17 | 1005.9 |
| 20260509094544 | 82 | 279 | 0.9 | 3.5 | 0.00 | 0.00 | 0.00 | 17 | 1005.9 |
| 20260509094042 | 83 | 247 | 0.9 | 5.2 | 0.00 | 0.00 | 0.00 | 16 | 1005.9 |
| 20260509093542 | 83 | 228 | 0.0 | 5.2 | 0.00 | 0.00 | 0.00 | 16 | 1005.9 |
| 20260509093052 | 83 | 197 | 0.0 | 3.5 | 0.00 | 0.00 | 0.00 | 16 | 1005.9 |
| 20260509092538 | 84 | 225 | 0.0 | 1.7 | 0.00 | 0.00 | 0.00 | 15 | 1005.9 |
| 20260509092037 | 85 | 223 | 0.0 | 1.7 | 0.00 | 0.00 | 0.00 | 15 | 1005.9 |
| 20260509091537 | 86 | 165 | 0.0 | 1.7 | 0.00 | 0.00 | 0.00 | 14 | 1005.9 |
| 20260509091036 | 86 | 157 | 0.0 | 1.7 | 0.00 | 0.00 | 0.00 | 13 | 1005.9 |
| 20260509090534 | 87 | 168 | 0.0 | 1.7 | 0.00 | 0.00 | 0.00 | 12 | 1005.8 |
| 20260509090033 | 87 | 163 | 0.0 | 3.5 | 0.00 | 0.00 | 0.00 | 11 | 1005.7 |
| 20260509085534 | 88 | 218 | 0.0 | 3.5 | 0.00 | 0.00 | 0.00 | 11 | 1005.7 |
| 20260509085030 | 89 | 264 | 0.0 | 8.7 | 0.00 | 0.00 | 0.00 | 11 | 1005.7 |
| 20260509084543 | 89 | 244 | 3.5 | 8.7 | 0.00 | 0.00 | 0.00 | 11 | 1005.6 |
| 20260509084031 | 89 | 273 | 1.7 | 7.0 | 0.00 | 0.00 | 0.00 | 11 | 1005.6 |
| 20260509083529 | 89 | 257 | 4.3 | 8.7 | 0.00 | 0.00 | 0.00 | 10 | 1005.5 |
| 20260509083029 | 89 | 241 | 5.2 | 9.6 | 0.00 | 0.00 | 0.00 | 10 | 1005.4 |
| 20260509082530 | 89 | 298 | 6.1 | 11.3 | 0.00 | 0.00 | 0.00 | 10 | 1005.5 |
| 20260509082030 | 89 | 279 | 5.2 | 10.4 | 0.00 | 0.00 | 0.00 | 10 | 1005.4 |
| 20260509081537 | 89 | 240 | 5.2 | 11.3 | 0.00 | 0.00 | 0.00 | 10 | 1005.4 |
| 20260509081028 | 89 | 292 | 6.1 | 11.3 | 0.00 | 0.00 | 0.00 | 10 | 1005.4 |
| 20260509080526 | 89 | 266 | 6.1 | 11.3 | 0.00 | 0.00 | 0.00 | 10 | 1005.4 |
| 20260509080038 | 89 | 265 | 5.2 | 10.4 | 0.00 | 0.00 | 0.00 | 11 | 1005.4 |
| 20260509075530 | 89 | 271 | 5.2 | 13.0 | 0.00 | 0.00 | 0.00 | 11 | 1005.4 |
| 20260509075026 | 89 | 325 | 6.1 | 14.8 | 0.00 | 0.00 | 0.00 | 11 | 1005.4 |
| 20260509074525 | 89 | 308 | 7.8 | 14.8 | 0.00 | 0.00 | 0.00 | 12 | 1005.3 |
| 20260509074024 | 89 | 310 | 7.8 | 13.9 | 0.00 | 0.00 | 0.00 | 12 | 1005.3 |
| 20260509073528 | 89 | 306 | 7.8 | 13.9 | 0.00 | 0.00 | 0.00 | 12 | 1005.4 |
| 20260509073028 | 89 | 313 | 7.8 | 13.0 | 0.00 | 0.00 | 0.00 | 12 | 1005.5 |
| 20260509072524 | 89 | 288 | 7.0 | 14.8 | 0.00 | 0.00 | 0.00 | 12 | 1005.4 |
| 20260509072023 | 89 | 331 | 7.8 | 14.8 | 0.00 | 0.00 | 0.00 | 11 | 1005.4 |
| 20260509071522 | 89 | 290 | 7.8 | 13.0 | 0.00 | 0.00 | 0.00 | 11 | 1005.4 |
| 20260509071023 | 88 | 339 | 7.0 | 12.2 | 0.00 | 0.00 | 0.00 | 12 | 1005.4 |
| 20260509070521 | 88 | 306 | 7.8 | 12.2 | 0.00 | 0.00 | 0.00 | 12 | 1005.5 |
| 20260509070020 | 89 | 279 | 6.1 | 11.3 | 0.00 | 0.00 | 0.00 | 14 | 1005.4 |
| 20260509065519 | 89 | 296 | 7.8 | 11.3 | 0.00 | 0.00 | 0.00 | 12 | 1005.5 |
| 20260509065019 | 89 | 331 | 7.0 | 13.9 | 0.00 | 0.00 | 0.00 | 12 | 1005.4 |
| 20260509064519 | 89 | 299 | 6.1 | 13.9 | 0.00 | 0.00 | 0.00 | 13 | 1005.5 |
| 20260509064018 | 89 | 321 | 7.0 | 12.2 | 0.00 | 0.00 | 0.00 | 12 | 1005.5 |
| 20260509063520 | 89 | 250 | 6.1 | 13.9 | 0.00 | 0.00 | 0.00 | 12 | 1005.5 |
| 20260509063018 | 90 | 309 | 7.0 | 13.9 | 0.00 | 0.00 | 0.00 | 13 | 1005.4 |
| 20260509062518 | 90 | 300 | 7.8 | 13.9 | 0.00 | 0.00 | 0.00 | 11 | 1005.5 |
| 20260509062022 | 90 | 287 | 7.8 | 13.9 | 0.00 | 0.00 | 0.00 | 11 | 1005.4 |
| 20260509061518 | 91 | 279 | 7.8 | 13.9 | 0.00 | 0.00 | 0.00 | 11 | 1005.4 |
| 20260509061020 | 91 | 281 | 7.0 | 12.2 | 0.00 | 0.00 | 0.00 | 11 | 1005.4 |
| 20260509060517 | 91 | 309 | 7.8 | 12.2 | 0.00 | 0.00 | 0.00 | 11 | 1005.4 |
| 20260509060016 | 91 | 284 | 6.1 | 13.0 | 0.00 | 0.00 | 0.00 | 11 | 1005.3 |
| 20260509055516 | 91 | 315 | 7.8 | 13.0 | 0.00 | 0.00 | 0.00 | 11 | 1005.2 |
| 20260509055015 | 91 | 263 | 7.0 | 13.0 | 0.00 | 0.00 | 0.00 | 11 | 1005.2 |
| 20260509054518 | 91 | 297 | 8.7 | 13.0 | 0.00 | 0.00 | 0.00 | 11 | 1005.2 |
| 20260509054015 | 90 | 292 | 6.1 | 12.2 | 0.00 | 0.00 | 0.00 | 11 | 1005.2 |
| 20260509053515 | 91 | 332 | 6.1 | 13.0 | 0.00 | 0.00 | 0.00 | 12 | 1005.2 |
| 20260509053028 | 90 | 291 | 6.1 | 10.4 | 0.00 | 0.00 | 0.00 | 12 | 1005.3 |
| 20260509052514 | 90 | 304 | 6.1 | 10.4 | 0.00 | 0.00 | 0.00 | 12 | 1005.3 |
| 20260509052014 | 91 | 261 | 5.2 | 10.4 | 0.00 | 0.00 | 0.00 | 12 | 1005.4 |
| 20260509051516 | 91 | 265 | 3.5 | 9.6 | 0.00 | 0.00 | 0.00 | 13 | 1005.4 |
| 20260509051014 | 90 | 259 | 5.2 | 9.6 | 0.00 | 0.00 | 0.00 | 12 | 1005.4 |
| 20260509050515 | 90 | 286 | 4.3 | 9.6 | 0.00 | 0.00 | 0.00 | 12 | 1005.4 |
| 20260509050017 | 90 | 263 | 2.6 | 6.1 | 0.00 | 0.00 | 0.00 | 12 | 1005.4 |
| 20260509045516 | 90 | 275 | 1.7 | 5.2 | 0.00 | 0.00 | 0.00 | 13 | 1005.4 |
| 20260509045013 | 90 | 256 | 2.6 | 6.1 | 0.00 | 0.00 | 0.00 | 13 | 1005.4 |
| 20260509044513 | 90 | 290 | 1.7 | 7.8 | 0.00 | 0.00 | 0.00 | 13 | 1005.3 |
| 20260509044013 | 90 | 264 | 3.5 | 7.8 | 0.00 | 0.00 | 0.00 | 13 | 1005.3 |
| 20260509043512 | 90 | 300 | 2.6 | 7.0 | 0.00 | 0.00 | 0.00 | 14 | 1005.2 |
| 20260509043013 | 90 | 294 | 1.7 | 7.0 | 0.00 | 0.00 | 0.00 | 14 | 1005.2 |
| 20260509042513 | 90 | 219 | 1.7 | 4.3 | 0.00 | 0.00 | 0.00 | 14 | 1005.2 |
| 20260509042013 | 90 | 246 | 1.7 | 3.5 | 0.00 | 0.00 | 0.00 | 14 | 1005.1 |
| 20260509041513 | 90 | 300 | 0.9 | 3.5 | 0.00 | 0.00 | 0.00 | 14 | 1005.1 |
| 20260509041012 | 91 | 291 | 0.9 | 3.5 | 0.00 | 0.00 | 0.00 | 14 | 1005.1 |
| 20260509040512 | 91 | 248 | 0.9 | 3.5 | 0.00 | 0.00 | 0.00 | 14 | 1005.0 |
| 20260509040012 | 91 | 280 | 1.7 | 4.3 | 0.00 | 0.00 | 0.00 | 14 | 1004.9 |
| 20260509035512 | 91 | 259 | 2.6 | 6.1 | 0.00 | 0.00 | 0.00 | 13 | 1004.8 |
| 20260509035012 | 92 | 261 | 2.6 | 6.1 | 0.00 | 0.00 | 0.00 | 13 | 1004.8 |
| 20260509034511 | 92 | 269 | 3.5 | 6.1 | 0.00 | 0.00 | 0.00 | 13 | 1004.8 |
| 20260509034011 | 92 | 269 | 1.7 | 5.2 | 0.00 | 0.00 | 0.00 | 13 | 1004.7 |
| 20260509033512 | 92 | 256 | 0.9 | 7.8 | 0.00 | 0.00 | 0.00 | 13 | 1004.6 |
| 20260509033011 | 93 | 308 | 3.5 | 7.8 | 0.00 | 0.00 | 0.00 | 13 | 1004.7 |
| 20260509032511 | 93 | 290 | 2.6 | 7.0 | 0.00 | 0.00 | 0.00 | 13 | 1004.6 |
| 20260509032011 | 93 | 307 | 2.6 | 9.6 | 0.00 | 0.00 | 0.00 | 13 | 1004.5 |
| 20260509031510 | 93 | 272 | 1.7 | 7.8 | 0.00 | 0.00 | 0.00 | 13 | 1004.5 |
| 20260509031010 | 94 | 287 | 1.7 | 7.8 | 0.00 | 0.00 | 0.00 | 12 | 1004.4 |
| 20260509030509 | 94 | 263 | 3.5 | 7.8 | 0.00 | 0.00 | 0.00 | 12 | 1004.4 |
| 20260509030008 | 94 | 267 | 4.3 | 7.8 | 0.00 | 0.00 | 0.00 | 12 | 1004.3 |
| 20260509025508 | 94 | 276 | 0.9 | 7.0 | 0.00 | 0.00 | 0.00 | 11 | 1004.3 |
| 20260509025006 | 95 | 267 | 1.7 | 7.8 | 0.00 | 0.00 | 0.00 | 10 | 1004.3 |
| 20260509024506 | 95 | 270 | 4.3 | 7.8 | 0.00 | 0.00 | 0.00 | 10 | 1004.2 |
| 20260509024006 | 95 | 295 | 3.5 | 7.8 | 0.00 | 0.00 | 0.00 | 10 | 1004.1 |
| 20260509023506 | 95 | 280 | 2.6 | 7.0 | 0.00 | 0.00 | 0.00 | 10 | 1004.0 |
| 20260509023006 | 95 | 319 | 2.6 | 7.0 | 0.00 | 0.00 | 0.00 | 10 | 1003.9 |
| 20260509022508 | 95 | 307 | 0.9 | 6.1 | 0.00 | 0.00 | 0.00 | 10 | 1003.9 |
| 20260509022006 | 96 | 280 | 1.7 | 8.7 | 0.00 | 0.00 | 0.00 | 10 | 1003.9 |
| 20260509021506 | 96 | 282 | 4.3 | 11.3 | 0.00 | 0.00 | 0.00 | 10 | 1003.8 |
| 20260509021007 | 96 | 303 | 4.3 | 11.3 | 0.00 | 0.00 | 0.00 | 10 | 1003.8 |
| 20260509020506 | 96 | 292 | 5.2 | 8.7 | 0.00 | 0.00 | 0.00 | 10 | 1003.8 |
| 20260509020007 | 96 | 257 | 3.5 | 10.4 | 0.00 | 0.00 | 0.00 | 10 | 1003.8 |
| 20260509015504 | 97 | 310 | 4.3 | 10.4 | 0.00 | 0.00 | 0.00 | 11 | 1003.7 |
| 20260509015003 | 97 | 281 | 5.2 | 10.4 | 0.00 | 0.00 | 0.00 | 10 | 1003.7 |
| 20260509014508 | 97 | 283 | 2.6 | 7.0 | 0.00 | 0.00 | 0.00 | 10 | 1003.7 |
| 20260509014004 | 98 | 278 | 1.7 | 6.1 | 0.00 | 0.00 | 0.00 | 10 | 1003.7 |
| 20260509013503 | 98 | 302 | 2.6 | 9.6 | 0.00 | 0.00 | 0.00 | 10 | 1003.6 |
| 20260509013004 | 98 | 268 | 4.3 | 9.6 | 0.00 | 0.00 | 0.00 | 10 | 1003.7 |
| 20260509012503 | 98 | 257 | 1.7 | 6.1 | 0.00 | 0.00 | 0.00 | 10 | 1003.6 |
| 20260509012004 | 98 | 322 | 3.5 | 7.0 | 0.00 | 0.00 | 0.00 | 10 | 1003.6 |
| 20260509011503 | 98 | 279 | 3.5 | 8.7 | 0.00 | 0.00 | 0.00 | 10 | 1003.7 |
| 20260509011002 | 99 | 306 | 4.3 | 8.7 | 0.00 | 0.00 | 0.00 | 10 | 1003.8 |
| 20260509010504 | 99 | 306 | 3.5 | 7.8 | 0.00 | 0.00 | 0.00 | 10 | 1003.7 |
| 20260509010004 | 99 | 264 | 3.5 | 8.7 | 0.00 | 0.00 | 0.00 | 10 | 1003.7 |
| 20260509005505 | 99 | 271 | 3.5 | 8.7 | 0.00 | 0.00 | 0.00 | 10 | 1003.8 |
| 20260509005002 | 100 | 264 | 3.5 | 7.8 | 0.00 | 0.00 | 0.00 | 10 | 1003.7 |
| 20260509004501 | 100 | 267 | 3.5 | 8.7 | 0.00 | 0.00 | 0.00 | 10 | 1003.7 |
| 20260509004001 | 100 | 277 | 4.3 | 8.7 | 0.00 | 0.00 | 0.00 | 10 | 1003.8 |
| 20260509003504 | 101 | 167 | 2.6 | 6.1 | 0.00 | 0.00 | 0.00 | 10 | 1003.8 |
| 20260509003101 | 100 | 240 | 0.9 | 6.1 | 0.00 | 0.00 | 0.00 | 11 | 1003.9 |
| 20260509002601 | 100 | 317 | 2.6 | 11.3 | 0.00 | 0.00 | 0.00 | 10 | 1003.9 |
| 20260509002100 | 101 | 298 | 5.2 | 11.3 | 0.00 | 0.00 | 0.00 | 9 | 1004.0 |
| 20260509001600 | 101 | 208 | 1.7 | 7.8 | 0.00 | 0.00 | 0.00 | 10 | 1004.0 |
| 20260509001100 | 101 | 249 | 2.6 | 9.6 | 0.00 | 0.00 | 0.00 | 10 | 1004.0 |
| 20260509000602 | 102 | 299 | 3.5 | 6.1 | 0.00 | 0.00 | 0.00 | 10 | 1004.1 |
| 20260509000059 | 101 | 88 | 0.9 | 4.3 | 0.00 | 0.00 | 0.00 | 10 | 1004.0 |
| 20260508235557 | 101 | 243 | 0.9 | 8.7 | 0.00 | 0.00 | 0.00 | 11 | 1004.1 |
| 20260508235057 | 101 | 332 | 1.7 | 8.7 | 0.00 | 0.00 | 0.00 | 10 | 1004.2 |
| 20260508234557 | 101 | 295 | 2.6 | 7.0 | 0.00 | 0.00 | 0.00 | 10 | 1004.2 |
| 20260508234056 | 101 | 264 | 2.6 | 8.7 | 0.00 | 0.00 | 0.00 | 10 | 1004.2 |
| 20260508233555 | 101 | 273 | 1.7 | 12.2 | 0.00 | 0.00 | 0.00 | 10 | 1004.3 |
| 20260508233114 | 101 | 251 | 0.9 | 12.2 | 0.00 | 0.00 | 0.00 | 10 | 1004.4 |
| 20260508232554 | 101 | 212 | 3.5 | 12.2 | 0.00 | 0.00 | 0.00 | 10 | 1004.4 |
| 20260508232055 | 101 | 296 | 3.5 | 7.8 | 0.00 | 0.00 | 0.00 | 10 | 1004.5 |
| 20260508231556 | 101 | 222 | 1.7 | 7.0 | 0.00 | 0.00 | 0.00 | 9 | 1004.4 |
| 20260508231051 | 101 | 195 | 3.5 | 7.0 | 0.00 | 0.00 | 0.00 | 10 | 1004.5 |
| 20260508230551 | 100 | 303 | 0.9 | 10.4 | 0.00 | 0.00 | 0.00 | 10 | 1004.5 |
| 20260508230056 | 100 | 324 | 3.5 | 10.4 | 0.00 | 0.00 | 0.00 | 11 | 1004.7 |
| 20260508225549 | 100 | 273 | 3.5 | 8.7 | 0.00 | 0.00 | 0.00 | 10 | 1004.6 |
| 20260508225049 | 100 | 277 | 3.5 | 9.6 | 0.00 | 0.00 | 0.00 | 10 | 1004.8 |
| 20260508224605 | 100 | 202 | 3.5 | 9.6 | 0.00 | 0.00 | 0.00 | 11 | 1004.7 |
| 20260508224048 | 100 | 269 | 3.5 | 9.6 | 0.00 | 0.00 | 0.00 | 11 | 1004.8 |
| 20260508223548 | 100 | 297 | 5.2 | 8.7 | 0.00 | 0.00 | 0.00 | 11 | 1004.9 |
| 20260508223047 | 100 | 209 | 2.6 | 8.7 | 0.00 | 0.00 | 0.00 | 12 | 1005.0 |
| 20260508222546 | 100 | 235 | 3.5 | 7.8 | 0.00 | 0.00 | 0.00 | 11 | 1005.1 |
| 20260508222045 | 100 | 219 | 1.7 | 10.4 | 0.00 | 0.00 | 0.00 | 11 | 1005.2 |
| 20260508221545 | 100 | 299 | 3.5 | 10.4 | 0.00 | 0.00 | 0.00 | 11 | 1005.4 |
| 20260508221044 | 100 | 214 | 2.6 | 7.8 | 0.00 | 0.00 | 0.00 | 12 | 1005.2 |
| 20260508220542 | 99 | 214 | 1.7 | 12.2 | 0.00 | 0.00 | 0.00 | 12 | 1005.5 |
| 20260508220042 | 99 | 275 | 6.1 | 12.2 | 0.00 | 0.00 | 0.00 | 12 | 1005.7 |
| 20260508215540 | 99 | 259 | 4.3 | 10.4 | 0.00 | 0.00 | 0.00 | 12 | 1005.8 |
| 20260508215040 | 99 | 265 | 1.7 | 8.7 | 0.00 | 0.00 | 0.00 | 12 | 1005.8 |
| 20260508214539 | 99 | 244 | 2.6 | 7.0 | 0.00 | 0.00 | 0.00 | 14 | 1006.1 |
| 20260508214040 | 98 | 239 | 1.7 | 7.0 | 0.00 | 0.00 | 0.00 | 14 | 1006.0 |
| 20260508213540 | 97 | 327 | 0.9 | 12.2 | 0.00 | 0.00 | 0.00 | 14 | 1006.1 |
| 20260508213038 | 97 | 296 | 4.3 | 12.2 | 0.00 | 0.00 | 0.00 | 13 | 1006.3 |
| 20260508212533 | 97 | 259 | 4.3 | 11.3 | 0.00 | 0.00 | 0.00 | 14 | 1006.4 |
| 20260508212033 | 97 | 263 | 1.7 | 10.4 | 0.00 | 0.00 | 0.00 | 14 | 1006.5 |
| 20260508211537 | 97 | 274 | 4.3 | 10.4 | 0.00 | 0.00 | 0.00 | 14 | 1006.6 |
| 20260508211032 | 97 | 300 | 5.2 | 9.6 | 0.00 | 0.00 | 0.00 | 16 | 1006.7 |
| 20260508210530 | 97 | 297 | 6.1 | 8.7 | 0.00 | 0.00 | 0.00 | 15 | 1006.8 |
| 20260508210031 | 96 | 274 | 1.7 | 9.6 | 0.00 | 0.00 | 0.00 | 15 | 1006.8 |
| 20260508205528 | 96 | 275 | 4.3 | 9.6 | 0.00 | 0.00 | 0.00 | 15 | 1007.0 |
| 20260508205031 | 97 | 271 | 2.6 | 8.7 | 0.00 | 0.00 | 0.00 | 15 | 1007.0 |
| 20260508204527 | 96 | 236 | 2.6 | 8.7 | 0.00 | 0.00 | 0.00 | 16 | 1007.1 |
| 20260508204026 | 96 | 216 | 2.6 | 10.4 | 0.00 | 0.00 | 0.00 | 16 | 1007.2 |